User: anonymous   Login
Location: ?astrovice
(49.6513°N, 14.9287°E)
Time: 02:43:29
(UTC+00:00)
Language:

FO-99 - Orbit

View from above orbital plane
View from above orbital plane
View from above satellite
View from above satellite

Ground track
Ground track

The orbit data is extracted from the following two-line orbital elements,

1 43937U 19003F   21289.10451186  .00003831  00000-0  14892-3 0  9999
2 43937  97.1651 327.4168 0021165 307.0623  52.8680 15.26420262152663
Epoch (UTC): 16 October 2021 02:30:29
Eccentricity: 0.0021165
inclination: 97.1651°
perigee height: 472 km
apogee height: 501 km
right ascension of ascending node: 327.4168°
argument of perigee: 307.0623°
revolutions per day: 15.26420262
mean anomaly at epoch: 52.8680°
orbit number at epoch: 15266

The dashed part of the orbit path shows where the satellite is in the earth's shadow,  

DLR